Deer Park, WA
on Thursday, November 15, 2012

Thursday
Previous Day Next Day
Daily Summary
 ActualAverageRecord
Temperature
Mean Temperature °F 34°F  
Max Temperature 43°F 42°F 55°F (2001)
Min Temperature 33°F 27°F 11°F (2011)
Degree Days
Heating Degree Days 27 31  
Month to date heating degree days 408 430  
Since 1 July heating degree days 1320 1498  
Cooling Degree Days 0 0  
Month to date cooling degree days 0 0  
Year to date cooling degree days 232 187  
Moisture
Dew Point 33°F   
Average Humidity 86    
Maximum Humidity 96    
Minimum Humidity 76    
Precipitation
Precipitation 0.00 in 0.11 in 0.45 in (2013)
Month to date precipitation 1.02 1.55  
Year to date precipitation 21.02 17.61  
Wind
Wind Speed 7 mph   
Max Wind Speed 16 mph   
Max Gust Speed 21 mph   
Visibility 10 miles   
Events     

Key: T is trace of precipitation, MM is missing value
Source: NWS Daily Summary
Time(PST)TemperatureDew PointHumidity Pressure Visibility Wind DirectionWind SpeedGust SpeedPrecipitationEvents Conditions
12:53 AM 33.1°F 32.0°F 96% 30.39 in 10.0 miles North 4.6 mph - N/A   Overcast
1:23 AM 33.8°F 32.0°F 93% 30.32 in 10.0 miles North 4.6 mph - N/A   Overcast
1:53 AM 33.1°F 32.0°F 96% 30.38 in 10.0 miles Calm Calm - N/A   Overcast
2:53 AM 34.0°F 32.0°F 92% 30.37 in 10.0 miles NNE 3.5 mph - N/A   Overcast
3:53 AM 34.0°F 32.0°F 92% 30.36 in 10.0 miles ENE 4.6 mph - N/A   Overcast
4:53 AM 34.0°F 32.0°F 92% 30.35 in 10.0 miles NE 10.4 mph - N/A   Overcast
5:53 AM 34.0°F 32.0°F 92% 30.33 in 10.0 miles NE 9.2 mph - N/A   Overcast
6:53 AM 34.0°F 32.0°F 92% 30.33 in 10.0 miles NE 5.8 mph - N/A   Overcast
7:53 AM 35.1°F 32.0°F 89% 30.32 in 10.0 miles NNE 6.9 mph - N/A   Overcast
8:53 AM 36.0°F 32.0°F 86% 30.31 in 10.0 miles NNE 8.1 mph - N/A   Overcast
9:43 AM 35.6°F 33.8°F 93% 30.24 in 10.0 miles NNE 10.4 mph - N/A   Overcast
9:53 AM 37.0°F 33.1°F 86% 30.29 in 10.0 miles NNE 11.5 mph - N/A   Overcast
10:53 AM 39.9°F 34.0°F 79% 30.25 in 10.0 miles NNE 10.4 mph - N/A   Mostly Cloudy
11:53 AM 41.0°F 35.1°F 79% 30.21 in 10.0 miles NE 12.7 mph - N/A   Clear
12:53 PM 42.1°F 35.1°F 76% 30.18 in 10.0 miles NE 10.4 mph - N/A   Clear
1:53 PM 43.0°F 35.1°F 74% 30.17 in 10.0 miles NNE 9.2 mph - N/A   Clear
2:53 PM 39.9°F 35.1°F 83% 30.16 in 10.0 miles NNE 5.8 mph - N/A   Partly Cloudy
3:07 PM 39.2°F 35.6°F 87% 30.11 in 10.0 miles NNE 6.9 mph - N/A   Mostly Cloudy
3:31 PM 39.2°F 35.6°F 87% 30.10 in 10.0 miles NNE 9.2 mph - N/A   Overcast
3:53 PM 39.0°F 35.1°F 86% 30.14 in 10.0 miles NNE 9.2 mph - N/A   Overcast
4:53 PM 37.9°F 34.0°F 86% 30.11 in 10.0 miles NNE 8.1 mph - N/A   Overcast
5:53 PM 37.9°F 33.1°F 83% 30.11 in 10.0 miles NNE 9.2 mph - N/A   Overcast
6:53 PM 37.0°F 33.1°F 86% 30.09 in 10.0 miles NNE 10.4 mph - N/A   Overcast
7:53 PM 37.0°F 33.1°F 86% 30.08 in 10.0 miles NNE 8.1 mph - N/A   Overcast
8:53 PM 37.0°F 33.1°F 86% 30.06 in 10.0 miles NNE 6.9 mph - N/A   Overcast
9:53 PM 36.0°F 33.1°F 89% 30.06 in 10.0 miles NNE 6.9 mph - N/A   Overcast
10:53 PM 36.0°F 33.1°F 89% 30.04 in 10.0 miles NE 4.6 mph - N/A   Overcast
11:53 PM 37.0°F 33.1°F 86% 30.04 in 10.0 miles Calm Calm - N/A   Overcast
Moon Phase
Nov. 15 Nov. 20 Nov. 28 Dec. 06 Dec. 13
Sunrise:06:56 AM (PST) Moon Rise:09:02 AM (PST)11/15
Sunset:04:11 PM (PST) Moon Set:06:02 PM (PST)11/15

Copyright © 2014 The Weather Underground, Inc.